Location: Newark
(45.0333°N, 18.2865°E)
Time: 21:05:12
(UTC+00:00)

N. Korean satellite - Pass Details

Date: 26 September 2021
Orbit: 450 x 495 km, 97.3° (Epoch: 25 October)

Event Time Altitude Azimuth Distance (km) Brightness Sun altitude
Rises 03:03:52 0° 31° (NNE) 2,533 11.0 -17.4°
Reaches altitude 10° 03:06:42 10° 57° (ENE) 1,658 10.4 -16.9°
Maximum altitude 03:08:43 14° 92° (E) 1,411 10.0 -16.6°
Drops below altitude 10° 03:10:44 10° 126° (SE) 1,664 9.8 -16.2°
Sets 03:13:35 0° 152° (SSE) 2,547 10.4 -15.7°
